Terminal Aerodrome Forecast
Issued by NWS

Home | Current Version | Previous Version | Text Only | Print | Product List | Glossary On
Versions: 1 2 3 4 5 6 7 8 9 10 11 12 13 14 15 16 17 18 19 20 21 22 23 24 25 26 27 28 29 30
825
FTUS45 KBOI 290525
TAFTWF
TAF
KTWF 290525Z 2906/3006 21010KT P6SM SCT080
     FM300000 26020G30KT P6SM BKN080=

USA.gov is the U.S. government's official web portal to all federal, state and local government web resources and services.